Probability
0 0 0 0 0 0 0 0 0 0 0 0 0 0 0 0 0 0 0 0 0 0 0 0 0 0 0 0 0 0 0 0 0 0 0 0 0 0 0 0 0 0 0 0 0 0 0 0 0
0 0 0 0 0 0 0 0 0 0 0 0 0 0 0 0 0 0 0 0 0 0 0 0 0 0 0 0 0 0 0 0 0 0 0 0 0 0 0 0 0 0 0 0 0 0 0 0 0
0 0 0 0 0 0 0 0 0 0 0 0 0 0 0 0 0 0 0 0 0 0 0 0 0 0 0 0 0 0 0 0 0 0 0 0 0 0 0 0 0 0 0 0 0 0 0 0 0
0 0 0 0 0 0 0 0 0 0 0 0 0 0 0 0 0 0 0 0 0 0 0 0 0 0 0 0 0 0 0 0 0 0 0 0 0 0 0 0 0 0 0 0 0 0 0 0 0
0 0 0 0 0 0 0 0 0 0 0 0 0 0 0 0 0 0 0 0 0 0 0 0 0 0 0 0 0 0 0 0 0 0 0 0 0 0 0 0 0 0 0 0 0 0 0 0 0
0 0 0 0 0 0 0 0 0 0 0 0 0 0 0 0 0 0 0 0 0 0 0 0 0 0 0 0 0 0 0 0 0 0 0 0 0 0 0 0 0 0 0 0 0 0 0 0 0
0 0 0 0 0 0 0 0 0 0 0 0 0 0 0 0 0 0 0 0 0 0 0 0 0 0 0 0 0 0 0 0 0 0 0 0 0 0 0 0 0 0 0 0 0 0 0 0 0
0 0 0 0 0 0 0 0 0 0 0 0 0 0 0 0 0 0 0 0 0 0 0 0 0 0 0 0 0 0 0 0 0 0 0 0 0 0 0 0 0 0 0 0 0 0 0 0 0
0 0 0 0 0 0 0 0 0 0 0 0 0 0 0 0 0 0 0 0 0 0 0 0 0 0 0 0 0 0 0 0 0 0 0 0 0 0 0 0 0 0 0 0 0 0 0 0 0
0 0 0 0 0 0 0 0 0 0 0 0 0 0 0 0 0 0 0 0 0 0 0 0 0 0 0 0 0 0 0 0 0 0 0 0 0 0 0 0 0 0 0 0 0 0 0 0 0
0 0 0 0 0 0 0 0 0 0 0 0 0 0 0 0 0 0 0 0 0 0 0 0 0 0 0 0 0 0 0 0 0 0 0 0 0 0 0 0 0 0 0 0 0 0 0 0 0
0 0 0 0 0 0 0 0 0 0 0 0 0 0 0 0 0 0 0 0 0 0 0 0 0 0 0 0 0 0 0 0 0 0 0 0 0 0 0 0 0 0 0 0 0 0 0 0 0
0 0 0 0 0 0 0 0 0 0 0 0 0 0 0 0 0 0 0 0 0 0 0 0 0 0 0 0 0 0 0 0 0 0 0 0 0 0 0 0 0 0 0 0 0 0 0 0 0
0 0 0 0 0 0 0 0 0 0 0 0 0 0 0 0 0 0 0 0 0 0 0 0 0 0 0 0 0 0 0 0 0 0 0 0 0 0 0 0 0 0 0 0 0 0 0 0 0
0 0 0 0 0 0 0 0 0 0 0 0 0 0 0 0 0 0 0 0 0 0 0 0 0 0 0 0 0 0 0 0 0 0 0 0 0 0 0 0 0 0 0 0 0 0 0 0 0
0 0 0 0 0 0 0 0 0 0 0 0 0 0 0 0 0 0 0 0 0 0 0 0 0 0 0 0 0 0 0 0 0 0 0 0 0 0 0 0 0 0 0 0 0 0 0 0 0
0 0 0 0 0 0 0 0 0 0 0 0 0 0 0 0 0 0 0 0 0 0 0 0 0 0 0 0 0 0 0 0 0 0 0 0 0 0 0 0 0 0 0 0 0 0 0 0 0
0 0 0 0 0 0 0 0 0 0 0 0 0 0 0 0 0 0 0 0 0 0 0 0 0 0 0 0 0 0 0 0 0 0 0 0 0 0 0 0 0 0 0 0 0 0 0 0 0
0 0 0 0 0 0 0 0 0 0 0 0 0 0 0 0 0 0 0 0 0 0 0 0 0 0 0 0 0 0 0 0 0 0 0 0 0 0 0 0 0 0 0 0 0 0 0 0 0
0 0 0 0 0 0 0 0 0 0 0 0 0 0 0 0 0 0 0 0 0 0 0 0 0 0 0 0 0 0 0 0 0 0 0 0 0 0 0 0 0 0 0 0 0 0 0 0 0
0 0 0 0 0 0 0 0 0 0 0 0 0 0 0 0 0 0 0 0 0 0 0 0 0 0 0 0 0 0 0 0 0 0 0 0 0 0 0 0 0 0 0 0 0 0 0 0 0
0 0 0 0 0 0 0 0 0 0 0 0 0 0 0 0 0 0 0 0 0 0 0 0 0 0 0 0 0 0 0 0 0 0 0 0 0 0 0 0 0 0 0 0 0 0 0 0 0
0 0 0 0 0 0 0 0 0 0 0 0 0 0 0 0 0 0 0 0 0 0 0 0 0 0 0 0 0 0 0 0 0 0 0 0 0 0 0 0 0 0 0 0 0 0 0 0 0
0 0 0 0 0 0 0 0 0 0 0 0 0 0 0 0 0 0 0 0 0 0 0 0 0 0 0 0 0 0 0 0 0 0 0 0 0 0 0 0 0 0 0 0 0 0 0 0 0
0 0 0 0 0 0 0 0 0 0 0 0 0 0 0 0 0 0 0 0 0 0 0 0 0 0 0 0 0 0 0 0 0 0 0 0 0 0 0 0 0 0 0 0 0 0 0 0 0
0 0 0 0 0 0 0 0 0 0 0 0 0 0 0 0 0 0 0 0 0 0 0 0 0 0 0 0 0 0 0 0 0 0 0 0 0 0 0 0 0 0 0 0 0 0 0 0 0
0 0 0 0 0 0 0 0 0 0 0 0 0 0 0 0 0 0 0 0 0 0 0 0 0 0 0 0 0 0 0 0 0 0 0 0 0 0 0 0 0 0 0 0 0 0 0 0 0
0 0 0 0 0 0 0 0 0 0 0 0 0 0 0 0 0 0 0 0 0 0 0 0 0 0 0 0 0 0 0 0 0 0 0 0 0 0 0 0 0 0 0 0 0 0 0 0 0
0 0 0 0 0 0 0 0 0 0 0 0 0 0 0 0 0 0 0 0 0 0 0 0 0 0 0 0 0 0 0 0 0 0 0 0 0 0 0 0 0 0 0 0 0 0 0 0 0
0 0 0 0 0 0 0 0 0 0 0 0 0 0 0 0 0 0 0 0 0 0 0 0 0 0 0 0 0 0 0 0 0 0 0 0 0 0 0 0 0 0 0 0 0 0 0 0 0
Wind_Speed
4 1 3 5 7 5 4 6 4 4 3 2 4 5 6 7 8 6 1 6 5 6 7 8 9 11 12 13 13 13 12 12 11 11 11 10 10 9 8 8 9 10 12 13 12 11 11 12 12
1 1 5 6 5 1 7 6 6 6 3 1 1 2 3 7 5 3 2 6 6 7 6 6 9 10 10 11 13 13 13 13 12 11 11 11 10 9 8 7 8 9 10 10 10 9 10 10 11
1 4 5 5 3 6 6 6 6 3 1 1 1 3 4 5 4 4 5 7 7 7 6 6 10 11 10 10 11 12 13 14 13 11 10 10 10 9 8 8 8 9 9 9 9 9 10 10 10
4 6 6 4 5 8 8 7 2 2 2 3 2 4 5 5 4 4 5 8 8 6 6 7 11 13 12 11 11 11 12 13 13 12 12 12 11 10 9 8 9 9 9 9 9 9 10 11 11
5 5 3 2 7 7 7 7 4 4 3 2 2 4 7 3 1 4 7 9 9 6 5 6 11 12 14 14 14 13 12 12 12 13 13 12 11 10 9 9 9 9 9 9 9 10 11 11 11
5 5 3 4 7 8 7 4 3 4 3 2 3 3 8 1 2 3 6 8 7 7 6 6 11 12 13 14 15 14 14 13 13 14 13 13 12 11 10 10 10 9 9 9 10 10 10 10 11
5 4 2 4 6 8 5 2 3 3 3 5 4 4 7 3 3 5 5 5 5 5 6 5 6 8 11 12 12 13 14 14 14 14 14 12 11 11 10 10 11 11 11 11 10 10 10 10 11
5 4 2 3 4 7 3 2 3 5 6 3 6 6 8 2 5 6 5 5 5 5 6 6 5 5 6 7 11 11 12 12 13 12 11 10 11 10 10 8 11 12 12 12 11 11 10 10 10
4 4 4 6 6 6 3 2 3 2 2 3 6 8 6 3 7 7 4 3 4 6 6 7 7 6 6 5 7 9 12 13 12 10 13 10 5 5 5 5 10 12 12 12 11 11 10 9 9
5 4 9 7 6 5 3 3 4 3 5 6 8 8 2 5 7 9 11 12 13 14 11 8 8 8 7 5 5 4 5 7 6 6 7 6 5 4 4 4 8 10 11 11 11 11 9 7 4
7 9 7 6 6 5 4 4 3 4 10 12 12 10 6 7 9 12 14 13 17 14 11 11 10 8 8 6 5 3 3 4 6 7 7 6 5 3 3 3 4 4 6 5 7 6 4 4 3
6 8 7 6 3 3 5 5 4 7 17 11 11 9 5 10 15 17 18 18 13 10 12 12 10 9 9 7 5 5 4 5 5 6 8 6 4 4 4 3 3 2 2 3 3 3 4 4 3
7 7 7 7 7 7 7 10 7 12 22 12 7 8 11 12 15 15 15 13 11 14 14 14 13 13 10 8 7 7 7 7 7 6 7 8 6 5 5 4 3 3 3 3 3 3 4 4 3
5 5 7 6 6 6 9 15 6 20 16 10 9 12 13 14 15 12 14 17 17 19 17 15 17 16 13 12 11 9 8 7 6 6 8 8 6 6 6 5 4 3 3 3 3 3 3 3 2
3 6 11 7 7 6 4 11 13 19 8 11 13 12 12 14 13 18 20 19 20 18 16 18 19 17 17 15 13 9 8 8 8 8 8 9 8 8 7 6 5 4 3 3 3 3 3 2 2
2 3 8 8 5 4 8 14 20 7 5 12 14 12 12 14 14 18 19 18 16 15 16 18 16 18 19 17 14 10 9 10 9 8 8 10 9 9 8 6 5 5 4 3 4 3 3 2 2
2 6 9 13 6 7 9 13 17 6 6 11 13 13 13 18 20 17 15 16 14 16 16 18 19 20 20 16 11 10 8 9 7 7 8 9 10 10 8 7 5 6 4 3 3 2 2 2 1
11 10 8 10 9 5 8 14 14 12 9 12 14 17 20 22 26 20 11 12 14 15 16 17 19 18 15 10 7 6 6 7 6 8 9 11 10 11 9 7 7 7 5 4 3 3 2 2 1
7 9 14 15 11 7 14 19 17 16 16 20 20 20 24 23 21 16 9 9 10 11 13 16 17 16 14 14 13 12 13 12 11 10 11 12 11 11 10 8 8 7 6 6 6 4 3 1 1
7 12 18 15 8 7 14 21 14 14 17 20 23 25 23 15 18 17 8 6 9 11 14 14 15 16 18 15 13 7 6 6 7 6 7 9 11 12 11 11 10 9 7 7 7 5 4 2 1
9 11 14 14 9 7 13 15 11 12 12 14 19 23 16 15 20 19 9 7 9 10 13 14 16 16 16 12 7 6 5 4 5 7 9 11 13 14 12 13 11 11 10 9 8 7 7 5 2
15 12 13 12 9 7 3 15 5 11 10 14 19 15 13 13 12 12 10 9 10 11 10 11 11 12 14 15 15 17 14 13 15 12 11 12 14 15 14 13 12 11 8 8 7 6 4 6 4
14 6 5 6 6 7 3 11 11 6 8 15 14 11 9 8 8 11 11 11 10 7 8 10 11 12 14 16 17 17 14 10 6 6 9 9 8 10 12 12 12 11 8 9 8 7 6 4 6
5 2 3 4 2 10 7 10 13 6 10 10 9 7 7 9 11 12 10 9 7 3 3 7 10 11 12 13 13 15 13 10 11 9 11 10 7 7 11 12 12 12 9 10 9 8 8 5 5
5 4 3 5 2 11 3 7 13 8 8 5 7 9 10 9 10 12 14 14 10 4 0 3 7 9 11 12 13 13 12 12 15 13 14 13 9 9 14 12 12 11 10 10 9 8 8 7 6
7 10 9 8 8 8 3 11 13 8 7 7 7 7 7 9 9 11 11 10 8 4 1 4 7 8 10 12 11 10 10 8 8 10 10 13 12 12 13 13 11 11 11 11 9 8 7 6 6
7 9 8 6 5 8 10 11 15 8 9 8 5 4 7 9 10 11 12 10 8 5 3 3 6 7 10 11 10 10 11 11 10 10 9 9 8 9 14 15 14 13 14 13 12 9 9 8 7
8 4 4 5 6 9 10 12 14 20 12 7 6 9 10 10 10 13 14 14 11 7 5 5 6 6 5 7 9 9 12 12 10 10 12 11 10 10 13 15 15 14 13 13 13 10 10 11 9
6 6 7 7 6 7 9 9 10 15 11 9 10 14 16 17 17 17 16 15 14 12 9 7 6 6 6 6 7 8 7 8 8 9 12 11 11 12 14 15 15 16 16 15 14 13 14 13 11
7 10 10 9 11 9 8 9 9 10 14 17 18 19 18 18 16 15 14 14 15 16 15 14 10 8 8 7 8 9 8 7 8 11 11 12 14 15 15 16 16 16 16 16 17 17 16 16 16
Wind_Direction
355 30 70 56 49 42 268 252 240 260 241 212 162 170 184 184 176 220 262 152 151 150 168 176 166 173 178 178 176 177 178 170 157 146 136 132 121 109 100 86 80 84 85 80 71 63 59 53 47
342 59 57 59 82 316 266 248 245 238 244 137 158 165 198 241 221 235 211 195 171 156 164 167 168 170 174 175 176 178 175 160 144 134 128 126 124 122 118 107 99 96 94 91 88 82 73 65 58
34 51 79 77 136 203 244 238 231 253 235 182 240 234 226 233 214 229 209 170 161 159 160 166 168 175 175 175 175 176 167 153 143 144 151 154 149 142 139 132 122 111 104 101 96 89 83 78 73
63 42 54 82 234 231 232 253 239 264 260 220 224 266 259 235 204 209 168 154 156 164 160 170 172 181 181 180 176 173 165 160 157 164 173 167 159 151 146 139 129 120 113 106 99 92 87 82 76
57 69 54 306 259 253 244 256 232 216 227 217 193 260 271 246 105 139 152 157 160 163 164 175 176 186 188 189 188 182 177 173 170 173 170 163 156 150 146 139 130 122 114 107 100 92 85 80 74
53 62 81 266 271 281 272 252 169 209 236 226 200 256 263 233 139 170 166 160 157 158 165 177 185 190 191 195 193 187 185 179 175 172 166 161 159 156 150 143 134 126 117 108 95 87 83 80 76
104 105 202 254 285 293 280 156 188 218 243 230 192 221 274 249 197 151 150 144 152 162 165 177 181 182 190 194 186 187 182 177 174 170 165 160 161 158 150 147 141 133 124 111 100 92 84 77 71
123 108 232 255 255 271 275 191 244 209 243 230 169 204 253 284 126 118 123 145 168 183 184 181 174 168 177 185 183 184 175 172 171 167 154 148 154 149 147 152 146 139 130 121 113 103 93 81 70
90 86 234 233 221 252 266 260 274 197 250 237 218 220 233 115 121 122 138 187 211 211 203 189 182 175 171 171 177 175 172 173 170 156 143 127 114 120 139 175 149 142 134 126 116 108 99 86 76
105 178 229 220 208 242 273 241 268 285 272 255 259 254 158 149 165 174 187 200 206 211 206 197 188 180 172 171 166 161 161 164 153 140 135 126 128 141 146 156 135 133 131 126 119 107 95 83 61
172 207 231 235 226 249 270 259 230 231 262 235 235 244 198 182 199 205 207 208 211 208 201 200 195 183 177 174 166 161 152 146 145 143 138 138 137 140 116 89 86 78 87 80 94 86 74 73 68
197 238 235 244 221 250 258 273 248 216 244 238 226 238 202 199 208 213 214 218 214 205 204 196 192 189 186 177 173 168 164 162 163 158 150 148 151 149 141 129 128 119 111 116 108 110 102 89 78
220 254 245 245 257 254 267 259 251 254 256 269 261 254 236 222 222 222 224 226 215 214 209 198 191 195 189 184 184 182 183 178 170 162 163 161 162 160 150 146 150 154 148 144 139 129 117 103 84
244 260 278 275 255 240 233 262 243 257 262 285 269 252 244 236 232 229 227 229 221 219 211 198 196 196 189 193 194 191 186 176 169 171 170 168 163 158 154 154 161 165 154 144 140 130 116 101 89
299 302 298 262 231 243 192 276 248 249 282 286 278 266 258 246 234 230 230 227 222 218 208 201 199 194 194 197 196 189 184 178 181 178 171 170 167 164 160 159 161 157 142 139 127 117 112 112 108
329 282 282 273 202 200 158 245 262 257 250 269 274 276 276 270 247 238 236 232 224 213 204 202 196 196 199 198 192 189 186 186 187 179 175 174 171 166 160 159 158 148 147 154 146 141 120 93 78
310 253 251 284 244 187 188 236 264 284 229 255 269 275 275 275 270 252 236 231 224 213 205 198 196 196 198 196 189 185 181 188 183 175 176 178 174 169 162 158 152 149 152 159 156 131 130 111 72
237 237 247 255 271 194 221 246 266 289 276 264 268 275 274 269 269 271 247 225 222 214 205 200 198 197 188 177 166 163 172 181 174 180 184 180 177 170 159 156 155 153 154 163 158 128 109 121 133
240 255 260 256 264 277 259 263 264 267 273 277 276 272 270 273 275 275 257 227 219 211 202 200 197 193 178 179 181 182 191 188 189 191 187 182 173 168 163 161 157 163 170 169 154 133 134 120 143
253 269 271 277 267 255 271 272 267 251 250 255 265 270 272 281 287 283 271 233 220 212 204 200 198 190 188 191 189 180 163 177 183 175 175 174 169 169 170 167 171 172 165 165 170 154 149 142 100
237 234 258 265 299 297 292 280 233 249 250 257 258 262 276 276 280 290 304 254 233 222 207 202 197 190 190 178 158 125 106 103 152 180 184 184 177 175 174 175 173 176 175 179 179 171 159 147 119
257 233 247 274 299 287 313 297 214 230 255 264 263 268 272 274 280 288 297 279 244 228 206 200 188 185 181 172 178 177 185 188 192 187 185 183 181 177 174 175 175 177 177 177 177 174 172 143 146
240 258 253 266 262 286 187 271 280 200 244 261 267 272 282 300 304 301 300 286 270 240 195 182 174 181 182 185 187 190 197 195 164 157 165 173 178 178 176 174 174 176 176 174 171 171 174 164 155
223 89 39 45 40 282 202 223 283 187 218 249 272 294 323 324 319 315 317 310 305 312 198 171 170 175 178 188 192 198 198 177 162 168 171 173 173 180 183 178 180 179 176 176 177 177 177 177 162
150 141 339 324 267 253 204 227 261 247 244 249 289 307 311 317 323 330 342 342 332 336 177 168 167 169 176 190 198 201 198 190 189 182 179 176 176 187 191 186 184 182 179 174 168 174 180 178 173
183 163 187 219 234 266 238 242 257 242 272 272 269 276 304 326 335 340 344 343 340 333 180 173 179 180 182 194 202 198 194 194 197 191 186 186 190 190 179 184 183 180 175 173 169 173 175 170 171
167 204 207 214 250 273 269 273 295 266 272 271 275 326 343 334 334 343 353 358 355 339 299 241 212 200 193 195 196 199 197 196 192 186 188 193 192 179 175 180 181 180 178 175 171 176 174 170 171
189 178 125 179 217 232 243 264 272 290 296 294 323 341 332 330 342 0 10 8 2 353 337 320 300 285 263 223 211 211 208 205 194 183 193 194 187 179 177 182 183 181 180 177 176 173 172 170 171
191 187 199 211 208 223 237 238 252 281 327 359 347 348 357 8 14 16 15 15 15 10 358 338 317 305 297 280 265 255 241 220 204 200 199 191 182 180 183 185 185 184 185 182 181 180 175 175 172
236 228 213 230 243 236 250 250 281 319 11 24 22 18 16 13 9 5 5 8 15 18 13 3 345 324 297 272 249 237 237 231 225 222 209 193 188 185 185 184 187 190 190 187 186 182 180 179 177